Theta_e
327 328 326 329 325 324 328 330 326 328 328 332 332 333 332 336 335 330 337 338 337 332 332 329 328 327 328 327 327 328 331 329 318 317 319 325 325 324 322 318 319 320 321 319 323 323 327 328 328
328 329 329 328 325 329 330 327 330 328 331 331 332 334 335 335 337 337 337 338 338 333 333 331 329 328 329 328 327 326 326 327 321 317 315 316 317 319 318 324 322 316 324 321 320 324 326 326 328
329 330 329 323 322 328 330 327 327 329 330 326 332 334 335 337 337 337 337 338 337 333 333 334 332 330 329 328 327 328 327 330 325 319 318 316 313 312 311 313 315 313 315 325 315 319 323 324 324
329 331 327 325 328 326 327 325 326 328 328 327 329 331 335 337 337 337 337 335 335 333 333 334 334 331 329 328 327 327 328 328 328 325 323 321 319 318 317 313 317 316 316 323 313 313 316 319 321
328 328 325 327 329 327 325 326 328 325 327 329 328 333 336 337 338 336 337 335 335 334 333 333 333 331 329 327 326 327 328 328 331 331 328 327 323 318 316 314 312 314 317 320 312 311 315 318 325
327 325 326 329 329 327 325 327 327 328 330 331 331 334 336 337 337 337 336 336 336 334 333 333 332 331 330 329 327 324 324 326 327 329 327 327 325 322 320 316 313 311 311 311 309 310 312 315 320
323 322 325 326 327 327 325 327 328 327 328 328 329 332 337 338 338 338 337 336 335 335 333 333 332 332 331 331 330 329 327 323 324 326 325 325 325 323 321 318 315 313 313 312 310 310 310 312 314
325 320 324 325 326 328 325 328 328 330 329 330 331 333 336 336 339 338 337 336 335 335 331 331 331 331 331 331 331 331 330 329 327 324 325 325 325 324 323 320 317 317 316 316 316 314 311 311 312
323 319 323 324 324 325 326 325 327 329 331 332 332 330 327 335 338 338 338 337 336 334 332 328 327 327 327 329 329 329 330 331 330 329 326 324 324 324 324 323 322 321 320 319 318 317 316 316 313
319 317 323 324 322 322 326 328 330 331 333 334 334 330 329 334 337 337 337 335 332 331 330 329 328 328 328 328 328 328 327 328 329 329 329 328 326 325 325 325 324 324 324 324 323 323 321 317 316
319 320 320 324 324 324 325 326 327 329 329 334 331 328 330 334 336 335 333 329 328 331 331 329 328 327 326 325 326 326 327 324 324 328 328 328 328 326 326 326 325 325 325 325 324 324 324 323 321
320 319 322 324 324 324 323 325 327 328 328 330 330 326 328 331 332 331 330 332 333 332 330 328 325 323 323 323 322 323 322 325 325 325 323 325 328 328 329 329 328 327 327 326 326 325 324 324 324
319 319 323 324 325 324 324 322 322 327 326 328 330 327 327 328 328 329 332 332 332 330 329 326 323 323 323 322 322 322 321 320 322 324 324 326 325 325 329 327 328 329 329 328 328 327 326 326 326
318 318 321 323 323 324 323 323 323 324 327 327 328 327 327 328 329 332 332 331 331 330 328 323 322 322 322 320 320 320 321 321 321 321 322 325 327 328 329 325 331 333 329 328 329 329 328 328 327
318 317 319 322 322 322 323 322 323 324 328 328 329 327 329 330 332 331 329 329 328 326 322 321 321 321 320 318 316 316 317 322 324 323 324 325 326 330 331 331 326 329 329 328 329 330 328 326 326
315 314 317 317 321 321 318 316 317 323 327 328 329 328 329 329 330 330 330 326 323 322 321 320 319 319 318 316 315 314 314 316 317 321 326 326 327 331 330 330 329 327 328 327 327 327 326 325 325
311 315 316 316 318 318 318 318 316 318 321 323 326 328 329 328 327 328 326 324 323 322 320 319 318 317 317 315 315 313 313 314 316 318 321 324 326 329 328 328 328 327 326 326 326 326 326 325 325
315 315 313 314 312 317 318 318 315 314 315 317 319 320 320 323 324 323 323 323 323 319 318 317 316 316 316 316 315 313 313 314 315 317 318 322 325 326 328 327 327 326 326 326 326 326 326 326 326
312 313 312 310 310 312 313 315 315 317 314 314 316 316 315 317 321 322 322 322 320 318 318 317 316 315 315 315 313 313 314 313 314 315 316 320 325 327 328 326 326 324 323 323 323 324 325 324 324
311 312 310 310 311 311 312 311 310 311 312 315 317 317 316 315 316 318 320 319 319 318 317 316 315 315 315 315 313 314 315 314 315 317 320 322 325 326 326 326 324 322 322 322 322 322 322 322 322
312 310 310 310 311 310 310 309 311 310 311 313 314 314 315 315 314 315 315 316 316 315 315 315 315 315 315 313 313 313 314 315 318 320 322 323 326 325 325 323 323 322 322 321 322 321 322 322 321
315 311 311 312 312 311 309 308 309 308 307 308 310 312 312 313 313 313 314 315 315 315 315 314 314 315 314 312 312 313 314 315 315 317 320 322 324 325 323 321 320 321 321 321 322 322 323 324 323
313 312 312 313 313 313 312 312 308 308 309 309 309 311 311 312 312 311 313 314 315 314 314 314 314 314 312 312 312 313 315 316 315 317 321 323 324 323 322 322 322 321 321 321 321 323 323 321 322
312 313 313 312 311 313 311 310 306 307 309 309 309 311 311 312 312 312 312 314 314 314 314 314 314 313 312 312 312 314 316 318 319 320 322 322 322 322 320 317 318 318 318 319 319 318 317 315 318
313 312 310 310 310 310 308 310 309 307 306 307 308 310 311 312 312 312 311 313 314 314 313 314 313 312 312 312 312 314 315 315 315 315 314 313 312 311 310 310 310 309 308 307 307 306 306 307 309
314 312 313 313 312 309 308 312 309 307 309 310 310 310 311 311 313 313 312 313 313 313 313 313 312 311 311 311 312 312 311 310 310 309 308 307 306 306 306 305 305 305 305 305 305 304 304 303 303
314 316 310 310 299 304 307 306 305 306 306 307 309 311 311 312 313 313 313 313 313 313 313 312 311 311 311 311 311 310 309 309 308 307 306 306 305 305 305 305 304 303 303 302 301 301 301 302 302
313 312 315 311 308 306 309 307 308 308 308 307 309 310 311 312 312 313 313 313 312 312 312 310 310 310 309 309 309 309 308 307 306 306 305 305 304 304 304 303 302 301 300 299 298 298 298 298 298
313 314 314 312 307 306 306 307 303 306 306 306 306 311 312 312 313 313 313 313 312 312 311 310 309 309 309 309 309 308 307 306 305 305 304 303 303 303 303 302 301 299 298 297 296 296 295 295 295
312 313 314 314 310 309 310 310 305 304 304 307 308 309 309 310 312 312 312 312 312 311 311 310 309 309 309 308 308 308 306 305 305 303 303 302 302 302 302 301 300 298 296 295 294 294 294 293 293
Wind_Speed
7 1 5 4 4 5 1 1 1 2 4 7 10 7 9 7 2 3 16 9 9 12 13 12 11 9 8 8 7 8 7 7 8 9 9 8 6 4 1 4 9 10 9 10 11 10 9 7 6
4 2 5 4 5 4 3 2 4 3 13 17 13 8 7 3 5 16 16 11 8 10 12 12 10 8 7 6 6 6 7 6 4 5 6 5 5 5 4 6 6 4 10 9 12 11 9 7 6
2 4 3 4 4 4 5 4 5 12 19 2 6 10 5 4 13 14 12 12 12 12 10 11 9 7 6 5 5 6 6 5 4 5 6 6 6 6 4 5 4 5 7 6 10 11 9 7 5
1 3 5 4 4 2 6 7 6 11 2 1 14 8 6 5 10 9 14 9 15 12 10 10 9 7 6 5 5 5 5 4 3 4 4 5 5 4 5 3 4 4 6 4 5 7 9 8 6
2 4 4 4 2 1 1 10 16 6 6 8 3 4 4 9 9 16 13 10 11 11 9 8 9 7 5 5 4 5 5 3 3 2 1 2 3 4 5 2 1 2 3 3 2 2 6 7 4
3 3 5 4 2 2 2 8 9 6 8 10 10 7 3 10 16 19 15 11 8 6 8 7 8 7 5 3 3 3 2 2 2 1 1 1 1 2 4 4 1 1 1 1 1 1 3 6 4
5 3 4 5 5 3 3 10 12 10 9 4 12 5 8 16 18 18 16 12 10 8 7 8 8 8 6 5 3 2 1 1 1 2 2 1 2 2 3 3 2 1 0 2 2 2 2 4 5
4 4 4 3 5 5 7 5 8 13 4 14 8 7 7 22 22 18 16 12 11 8 3 7 8 8 7 7 6 5 5 4 4 4 4 4 4 3 3 3 2 2 3 3 4 4 4 5 6
2 4 3 7 7 4 11 6 5 6 12 5 6 9 13 25 25 21 21 17 14 10 5 6 6 5 5 5 6 6 6 6 6 6 7 7 6 6 5 5 5 4 4 5 6 7 7 7 7
5 3 2 0 3 6 11 14 14 8 9 4 8 10 22 26 27 24 22 18 16 12 9 6 4 2 2 2 4 5 8 8 6 7 9 9 9 8 8 7 7 7 6 6 7 8 9 9 9
3 4 2 4 2 11 13 11 6 18 2 14 22 23 25 26 25 22 19 16 11 9 8 5 3 2 3 4 5 7 8 9 10 9 9 9 9 9 9 9 8 9 8 8 9 9 9 9 9
3 0 1 4 4 5 7 10 6 13 6 17 21 23 26 26 25 23 20 17 15 13 8 6 5 5 3 4 6 8 9 9 10 10 10 10 11 11 10 9 9 11 10 10 10 11 11 11 10
2 1 4 5 8 9 7 6 2 11 4 14 23 25 26 25 23 21 17 15 13 14 11 9 9 8 7 9 9 10 10 11 10 11 11 11 11 12 12 12 10 12 12 12 12 12 12 13 12
1 2 2 1 4 4 5 1 1 5 6 16 25 26 26 25 23 21 20 18 17 14 13 12 13 11 12 13 14 15 15 13 13 13 13 14 13 11 11 14 15 14 14 13 14 14 14 15 15
4 2 4 4 1 2 5 2 5 5 8 19 24 24 23 22 21 22 20 18 17 16 15 16 15 13 13 15 18 20 19 18 18 16 15 15 16 16 16 16 15 17 16 17 17 17 17 17 17
4 5 2 3 2 1 2 7 9 10 13 18 22 24 24 23 23 22 21 21 19 17 17 17 17 17 17 18 20 21 21 20 20 20 18 16 15 15 18 18 17 16 18 18 18 18 18 19 20
6 3 3 5 9 2 3 6 4 11 16 18 21 23 25 25 25 24 24 23 22 20 19 19 19 19 20 22 21 23 22 21 20 20 20 18 15 14 16 17 18 18 19 19 19 19 20 20 21
6 5 5 6 3 3 4 8 7 7 13 18 20 22 25 28 31 26 28 28 26 23 21 20 19 20 22 22 25 23 21 21 21 20 19 17 15 14 17 17 18 18 17 18 18 19 19 21 21
6 4 4 2 2 1 7 7 12 18 12 14 18 20 18 18 29 26 28 30 27 25 23 22 20 20 21 24 24 20 18 19 20 20 19 17 15 14 18 18 17 19 17 17 19 20 20 22 22
3 4 4 3 4 2 4 8 9 14 12 24 28 28 28 25 22 25 30 28 28 25 23 22 20 19 23 23 19 17 14 14 16 16 15 14 16 14 16 17 16 15 13 12 14 17 19 19 18
3 6 4 3 4 2 5 7 7 9 13 25 28 31 34 36 32 28 26 27 26 26 23 21 19 20 23 21 18 15 14 15 14 14 12 12 16 16 15 16 16 15 15 13 14 14 14 15 15
6 6 5 3 3 4 2 6 6 6 9 8 22 32 42 45 41 34 35 34 33 28 23 19 18 21 21 18 16 13 12 14 15 15 14 14 15 16 15 16 14 14 14 16 18 17 18 17 18
6 6 8 5 3 1 1 3 6 3 7 13 21 35 35 31 29 35 36 37 31 26 22 19 20 21 18 15 13 10 10 12 13 13 12 13 14 15 15 16 17 16 18 16 15 17 18 20 16
7 6 5 4 3 5 8 7 5 6 9 5 11 22 18 23 27 26 31 35 31 26 24 23 22 19 16 13 11 9 9 10 11 12 13 13 14 15 14 14 13 14 15 14 16 17 17 17 17
3 7 2 2 0 7 2 6 14 8 11 7 11 17 10 11 14 18 25 33 31 29 26 24 22 18 16 12 10 9 9 9 9 9 8 8 9 10 11 12 13 13 13 14 14 15 15 15 15
8 7 5 7 5 4 2 7 6 8 17 22 28 27 27 24 14 15 20 29 31 28 25 23 21 19 16 13 12 11 11 10 10 9 9 10 12 12 13 13 14 15 16 17 18 18 18 17 16
6 10 5 4 3 2 4 6 8 11 11 10 12 14 19 16 15 17 20 25 27 26 25 22 21 20 17 15 15 14 14 15 14 13 13 14 14 14 14 15 15 17 18 18 19 19 19 18 17
8 9 2 2 1 4 5 5 7 4 9 7 6 13 11 13 14 16 19 23 25 24 21 21 21 20 19 18 17 18 18 19 17 17 16 15 15 15 16 17 18 18 18 19 19 18 18 17 16
4 5 5 5 5 5 2 6 7 9 6 8 10 11 11 13 14 17 20 23 23 22 22 21 23 23 22 20 20 21 22 22 21 20 18 17 17 17 17 18 18 18 18 18 17 16 16 15 14
13 11 12 6 5 4 3 11 5 6 7 5 7 7 7 12 15 16 21 23 24 25 23 23 24 23 24 23 24 24 25 25 24 22 22 21 20 19 19 19 19 19 18 17 15 13 12 12 11
Wind_Direction
357 349 170 155 61 65 30 265 243 141 59 70 99 117 115 58 97 170 138 140 149 157 150 147 143 134 122 117 119 136 123 106 96 129 150 159 166 171 144 58 123 119 115 138 144 148 141 140 145
3 138 150 115 89 84 268 259 197 182 136 109 83 79 54 84 103 133 144 160 156 165 155 151 148 135 125 111 104 116 127 141 121 102 124 143 168 186 164 128 119 143 108 114 156 157 152 150 150
329 126 149 92 105 150 173 193 177 149 146 128 111 78 79 99 126 135 146 136 160 164 156 161 152 142 136 114 99 104 115 129 97 91 103 110 96 89 89 146 131 118 108 107 141 163 172 168 171
171 113 68 85 132 209 178 182 171 135 217 160 120 72 93 156 149 149 139 139 154 156 154 159 165 159 153 145 129 120 117 123 103 91 69 56 54 58 65 115 129 120 113 126 119 155 174 185 198
74 75 60 76 90 87 166 168 157 143 132 137 105 128 82 158 163 155 147 147 154 151 155 162 170 170 161 154 144 132 133 128 140 159 73 39 41 43 45 70 121 142 149 155 77 127 167 172 153
59 73 67 116 99 58 40 159 138 111 132 127 111 100 108 149 160 153 147 150 169 180 172 169 180 185 181 167 152 140 130 128 124 182 254 305 346 1 18 42 107 218 231 245 102 36 195 198 209
90 74 150 135 152 129 178 162 140 129 136 151 134 94 143 159 163 155 154 165 178 201 214 189 189 199 206 209 208 209 206 198 205 214 236 285 291 323 339 358 29 138 302 303 318 315 270 235 231
60 84 104 182 179 182 160 119 148 132 109 138 143 164 177 167 169 165 164 187 187 205 223 202 199 207 218 225 230 235 241 247 256 262 258 263 264 278 297 307 306 291 304 320 317 313 307 280 275
38 66 146 190 156 178 160 127 158 137 141 159 182 169 163 159 170 174 180 190 196 201 193 167 165 178 209 225 232 233 237 244 255 260 263 265 269 270 278 286 293 297 294 306 314 312 311 303 291
66 77 210 174 214 180 171 145 145 145 140 128 156 161 158 164 174 180 186 192 192 192 185 176 173 183 221 253 264 264 266 246 251 258 259 261 264 267 268 272 274 283 289 294 305 315 317 315 312
109 148 298 6 297 177 163 144 148 144 223 178 166 161 167 171 180 188 189 190 182 179 187 182 190 234 277 295 290 290 298 301 278 264 254 252 254 257 263 271 274 281 285 289 295 301 309 311 310
95 62 121 9 47 132 138 144 156 174 186 197 181 175 174 179 184 186 189 187 187 194 196 206 222 240 264 291 302 301 299 303 304 314 305 276 262 251 253 266 272 276 280 284 288 291 294 300 300
69 292 89 100 81 76 121 71 237 221 212 184 183 179 181 186 189 192 194 199 204 211 214 228 232 246 258 271 280 284 292 292 295 292 297 299 303 279 272 266 271 283 280 284 286 288 288 290 292
90 32 321 107 103 89 109 14 26 217 219 185 187 189 190 193 194 194 202 209 214 220 227 235 243 248 255 274 277 275 274 278 280 282 285 284 282 284 294 293 280 278 286 286 283 284 284 287 288
113 102 22 326 340 122 136 300 225 192 182 181 191 196 200 205 207 210 213 217 218 222 232 243 245 244 260 282 287 276 271 264 266 270 274 276 272 272 270 274 293 286 289 287 289 290 288 290 292
87 59 118 282 199 297 140 243 242 180 183 190 196 204 209 213 216 221 220 216 220 230 239 239 242 252 262 279 289 285 272 265 264 260 262 265 265 267 265 270 276 283 286 281 281 286 288 288 287
8 172 174 297 215 124 157 251 255 200 213 216 214 216 220 223 223 220 219 223 232 242 243 243 253 259 265 281 286 286 271 264 262 258 255 253 253 260 265 267 274 277 279 279 281 283 282 283 285
193 191 230 202 209 194 184 251 265 183 212 228 231 237 240 240 233 230 229 231 236 240 240 244 255 265 271 278 288 282 268 260 256 255 255 249 247 247 263 270 272 272 275 273 278 280 280 280 281
131 149 180 251 235 200 236 237 258 254 238 238 239 244 251 256 242 236 233 231 237 234 235 240 250 267 275 282 287 274 266 257 255 254 252 244 237 233 243 254 266 282 277 271 270 270 272 279 282
134 157 200 287 338 161 277 263 256 261 244 244 250 254 255 252 248 238 232 230 231 231 231 239 255 270 280 284 276 265 258 249 246 248 245 235 223 231 251 258 275 282 291 294 284 274 275 280 282
176 176 166 189 349 15 328 279 234 253 242 254 252 254 257 255 249 236 230 229 229 231 234 244 261 272 276 273 265 259 248 244 240 243 247 238 232 232 246 261 267 277 279 276 276 276 272 269 273
220 179 155 114 71 240 50 284 279 253 262 245 255 251 253 254 253 245 238 234 237 235 237 248 264 267 264 263 257 255 252 248 248 249 252 250 241 237 242 257 264 263 261 263 268 268 269 271 277
213 156 165 150 169 3 231 300 269 277 279 256 255 256 257 261 258 249 240 237 232 229 234 247 255 251 251 247 249 252 248 241 241 242 238 233 230 239 252 262 270 269 269 262 266 275 278 282 276
144 88 59 62 102 260 195 184 225 213 226 261 256 265 267 277 260 250 241 233 224 225 232 239 237 243 235 233 239 240 234 231 229 231 234 240 250 258 267 274 273 272 274 276 275 276 277 277 275
135 120 54 356 292 236 325 202 261 288 259 233 260 275 292 299 250 235 226 221 220 226 230 228 233 230 223 224 231 228 221 220 223 231 241 251 263 270 275 276 276 279 283 285 284 283 282 281 277
176 159 161 198 199 255 114 229 252 247 275 262 264 273 278 284 259 232 221 220 221 222 224 229 231 222 220 225 228 226 226 229 236 240 248 260 267 269 273 277 282 285 287 286 285 283 281 279 276
184 204 157 104 51 47 229 284 289 265 272 268 275 277 269 263 243 231 222 218 218 219 224 231 225 222 223 228 229 233 239 240 241 244 254 263 268 274 279 282 286 288 286 284 284 282 279 276 272
177 157 136 99 219 270 257 257 232 284 244 262 269 268 260 231 227 224 218 217 217 222 229 228 226 226 229 230 236 244 247 246 244 251 258 262 267 273 280 284 286 286 285 285 282 277 274 269 265
155 189 200 148 160 196 261 254 220 234 235 250 238 264 259 252 243 230 220 217 221 229 234 236 231 233 235 239 246 250 252 251 251 254 257 260 265 270 276 280 284 285 287 283 278 274 268 262 255
222 218 198 199 219 239 234 253 223 226 228 206 213 254 285 271 261 246 231 225 227 234 240 240 238 242 243 246 250 254 256 255 255 253 256 258 263 267 272 277 281 280 280 278 275 269 259 248 237